Weather in Azanovo

Russia / Mari El Republic     56°43′05″N   48°13′20″E
temp.,
°C
wind,
m/s
gust,
m/s
humid.,
%
clouds,
%
prec.,
mm/h
press.,
hPa
HPBL,
m
28 february, sun
sun2800:00−19n499877 0.0 1008147
03:00−21n499872 0.0 1009149
06:00−21n4710079 0.0 1010122
09:00−18n479578 0.0 1010248
12:00−15n469289 0.0 1011329
15:00−13n589192 0.0 1012434
18:00−17n349692 0.0 101463
21:00−19n339871 0.0 101723
1 march, mon
mon100:00−20n33980 0.0 101821
03:00−21n23980 0.0 102020
06:00−22n23980 0.0 102120
09:00−18wnw11940 0.0 102175
12:00−14wsw239056 0.0 1020280
15:00−10sw359276 0.0 1019410
18:00−11sw4996100 0.1 1016281
21:00−11ssw51196100 0.1 1013282
2 march, tue
tue200:00−6ssw71395100 1.8 1008530
03:00−4sw71396100 3.8 1004604
06:00−2sw61297100 1.6 1000521
09:000w61198100 3.0 999704
12:000w510100100 0.3 997671
15:000wnw61196100 0.7 997759
18:00−1wnw6129799 0.8 998551
21:00−2wnw5129599 1.4 1000501
3 march, wed
wed300:00−5wnw499497 0.1 1000256
03:00−9wnw479777 0.2 1002119
06:00−7nw4109698 0.2 1002309
09:00−7nw599396 0.2 1004469
12:00−5nw488893 0.0 1005489
15:00−4wnw698963 0.1 1006834
18:00−5wnw41090100 0.1 1006526
21:00−6wnw4109199 0.1 1007572
4 march, thu
thu400:00−8wsw51195100 0.1 1005363
03:00−8sw4896100 0.2 1004269
06:00−8sw599594 0.1 1003296
09:00−6ssw6119597 0.5 999452
12:00−3ssw81394100 0.8 995912
15:00−1sw91596100 2.2 9911091
18:00−1wsw91592100 0.9 9891054
21:00−5wsw6168084 1.6 990609